Hourly Weather Lugovoy

Today, 18 May, Tuesday

Time Temperature Precipitation Wind Pressure Humidity
00:00 +18°C° 0 mm 4 mps 745 mmHg 55%
01:00 +18°C° 0 mm 4 mps 745 mmHg 55%
02:00 +17°C° 0 mm 4 mps 745 mmHg 54%
03:00 +17°C° 0 mm 4 mps 745 mmHg 54%
04:00 +17°C° 0 mm 4 mps 745 mmHg 57%
05:00 +17°C° 0 mm 4 mps 744 mmHg 60%
06:00 +16°C° 0 mm 5 mps 744 mmHg 64%
07:00 +27°C° 0 mm 6 mps 744 mmHg 45%
08:00 +26°C° 0 mm 6 mps 744 mmHg 48%
09:00 +23°C° 0 mm 6 mps 744 mmHg 52%
10:00 +26°C° 0 mm 6 mps 744 mmHg 49%
11:00 +27°C° 0 mm 6 mps 744 mmHg 46%
12:00 +29°C° 0 mm 7 mps 744 mmHg 43%
13:00 +29°C° 0 mm 7 mps 744 mmHg 44%
14:00 +29°C° 0 mm 7 mps 744 mmHg 44%
15:00 +29°C° 0 mm 7 mps 743 mmHg 44%
16:00 +28°C° 0 mm 7 mps 743 mmHg 47%
17:00 +27°C° 0 mm 6 mps 743 mmHg 49%
18:00 +26°C° 0 mm 5 mps 743 mmHg 52%
19:00 +25°C° 0 mm 5 mps 743 mmHg 54%
20:00 +22°C° 0 mm 5 mps 743 mmHg 56%
21:00 +21°C° 0 mm 5 mps 742 mmHg 58%
22:00 +20°C° 0 mm 5 mps 742 mmHg 59%
23:00 +19°C° 0 mm 5 mps 743 mmHg 60%

Tomorrow, 19 May, Wednesday

Time Temperature Precipitation Wind Pressure Humidity
00:00 +18°C° 0 mm 4 mps 743 mmHg 61%
01:00 +18°C° 0 mm 4 mps 742 mmHg 61%
02:00 +18°C° 0 mm 4 mps 742 mmHg 62%
03:00 +17°C° 0 mm 4 mps 742 mmHg 63%
04:00 +17°C° 0 mm 5 mps 742 mmHg 61%
05:00 +19°C° 0 mm 6 mps 742 mmHg 59%
06:00 +20°C° 0 mm 7 mps 742 mmHg 58%
07:00 +21°C° 0.1 mm 7 mps 742 mmHg 57%
08:00 +22°C° 0.1 mm 6 mps 742 mmHg 57%
09:00 +23°C° 0.1 mm 6 mps 742 mmHg 57%
10:00 +24°C° 0 mm 7 mps 742 mmHg 55%
11:00 +26°C° 0 mm 7 mps 742 mmHg 54%
12:00 +27°C° 0 mm 7 mps 742 mmHg 52%
13:00 +27°C° 0 mm 7 mps 742 mmHg 51%
14:00 +28°C° 0 mm 6 mps 742 mmHg 51%
15:00 +28°C° 0 mm 6 mps 742 mmHg 51%
16:00 +27°C° 0 mm 5 mps 742 mmHg 55%
17:00 +26°C° 0 mm 4 mps 742 mmHg 60%
18:00 +25°C° 0 mm 3 mps 742 mmHg 65%
19:00 +24°C° 0.1 mm 3 mps 742 mmHg 71%
20:00 +21°C° 0.1 mm 2 mps 742 mmHg 77%
21:00 +19°C° 0.1 mm 2 mps 742 mmHg 83%
22:00 +18°C° 0.6 mm 2 mps 743 mmHg 86%
23:00 +17°C° 0.6 mm 2 mps 743 mmHg 88%

Day after tomorrow, 20 May, Thursday

Time Temperature Precipitation Wind Pressure Humidity
00:00 +17°C° 0.6 mm 2 mps 743 mmHg 91%
01:00 +16°C° 0.6 mm 2 mps 743 mmHg 92%
02:00 +16°C° 0.6 mm 3 mps 743 mmHg 93%
03:00 +16°C° 0.6 mm 3 mps 743 mmHg 94%
04:00 +16°C° 0.1 mm 3 mps 743 mmHg 93%
05:00 +16°C° 0.1 mm 3 mps 743 mmHg 93%
06:00 +16°C° 0.1 mm 3 mps 743 mmHg 92%
07:00 +15°C° 0.2 mm 4 mps 743 mmHg 91%
08:00 +15°C° 0.2 mm 4 mps 744 mmHg 91%
09:00 +14°C° 0.2 mm 4 mps 744 mmHg 90%
10:00 +15°C° 0.2 mm 4 mps 744 mmHg 84%
11:00 +16°C° 0.2 mm 5 mps 744 mmHg 79%
12:00 +17°C° 0.2 mm 5 mps 744 mmHg 73%
13:00 +17°C° 0.2 mm 5 mps 744 mmHg 70%
14:00 +19°C° 0.2 mm 6 mps 744 mmHg 68%
15:00 +19°C° 0.2 mm 6 mps 744 mmHg 66%
16:00 +19°C° 0.2 mm 6 mps 744 mmHg 69%
17:00 +19°C° 0.2 mm 6 mps 744 mmHg 71%
18:00 +17°C° 0.2 mm 5 mps 744 mmHg 74%
19:00 +16°C° 0 mm 5 mps 744 mmHg 80%
20:00 +15°C° 0 mm 4 mps 744 mmHg 86%
21:00 +13°C° 0 mm 3 mps 745 mmHg 92%
22:00 +13°C° 0 mm 3 mps 745 mmHg 93%
23:00 +13°C° 0 mm 4 mps 745 mmHg 94%

21 May, Friday

Time Temperature Precipitation Wind Pressure Humidity
00:00 +12°C° 0 mm 4 mps 745 mmHg 95%
01:00 +12°C° 0 mm 3 mps 746 mmHg 95%
02:00 +12°C° 0 mm 3 mps 746 mmHg 96%
03:00 +11°C° 0 mm 3 mps 746 mmHg 96%
04:00 +12°C° 0 mm 3 mps 747 mmHg 94%
05:00 +12°C° 0 mm 3 mps 747 mmHg 92%
06:00 +13°C° 0 mm 4 mps 747 mmHg 90%
07:00 +14°C° 0 mm 4 mps 748 mmHg 83%
08:00 +17°C° 0 mm 4 mps 748 mmHg 76%
09:00 +19°C° 0 mm 4 mps 748 mmHg 69%
10:00 +20°C° 0.1 mm 5 mps 749 mmHg 66%
11:00 +20°C° 0.1 mm 5 mps 749 mmHg 63%
12:00 +21°C° 0.1 mm 5 mps 749 mmHg 60%
13:00 +22°C° 0.3 mm 5 mps 749 mmHg 60%
14:00 +22°C° 0.3 mm 5 mps 749 mmHg 60%
15:00 +22°C° 0.3 mm 4 mps 749 mmHg 59%
16:00 +22°C° 0.2 mm 4 mps 749 mmHg 63%
17:00 +22°C° 0.2 mm 3 mps 749 mmHg 66%
18:00 +21°C° 0.2 mm 2 mps 749 mmHg 69%
19:00 +20°C° 0 mm 2 mps 749 mmHg 72%
20:00 +20°C° 0 mm 1 mps 749 mmHg 75%
21:00 +18°C° 0 mm 1 mps 750 mmHg 78%
22:00 +18°C° 0 mm 1 mps 750 mmHg 79%
23:00 +17°C° 0 mm 2 mps 750 mmHg 79%

22 May, Saturday

Time Temperature Precipitation Wind Pressure Humidity
00:00 +17°C° 0 mm 2 mps 750 mmHg 79%
01:00 +16°C° 0 mm 2 mps 750 mmHg 81%
02:00 +16°C° 0 mm 2 mps 750 mmHg 82%
03:00 +15°C° 0 mm 2 mps 750 mmHg 84%
04:00 +16°C° 0 mm 2 mps 750 mmHg 82%
05:00 +16°C° 0 mm 3 mps 750 mmHg 81%
06:00 +17°C° 0 mm 3 mps 750 mmHg 80%
07:00 +18°C° 0 mm 4 mps 750 mmHg 75%
08:00 +20°C° 0 mm 5 mps 750 mmHg 70%
09:00 +22°C° 0 mm 6 mps 750 mmHg 65%
10:00 +23°C° 0 mm 6 mps 750 mmHg 61%
11:00 +24°C° 0 mm 6 mps 750 mmHg 57%
12:00 +26°C° 0 mm 6 mps 750 mmHg 53%
13:00 +27°C° 0 mm 6 mps 749 mmHg 53%
14:00 +27°C° 0 mm 6 mps 749 mmHg 54%
15:00 +28°C° 0 mm 6 mps 749 mmHg 54%
16:00 +18°C° 0 mm 4 mps 747 mmHg 70%
17:00 +18°C° 0 mm 4 mps 747 mmHg 72%
18:00 +17°C° 0 mm 4 mps 747 mmHg 74%
19:00 +15°C° 0 mm 4 mps 747 mmHg 77%
20:00 +14°C° 0 mm 4 mps 747 mmHg 81%
21:00 +13°C° 0 mm 4 mps 747 mmHg 85%
22:00 +12°C° 0 mm 4 mps 747 mmHg 84%
23:00 +12°C° 0 mm 4 mps 747 mmHg 83%

23 May, Sunday

Time Temperature Precipitation Wind Pressure Humidity
00:00 +12°C° 0 mm 4 mps 747 mmHg 82%
01:00 +12°C° 0 mm 4 mps 747 mmHg 81%
02:00 +12°C° 0 mm 4 mps 747 mmHg 81%
03:00 +12°C° 0 mm 4 mps 748 mmHg 81%
04:00 +12°C° 0.4 mm 5 mps 748 mmHg 82%
05:00 +12°C° 0.4 mm 5 mps 748 mmHg 84%
06:00 +13°C° 0.4 mm 5 mps 748 mmHg 85%
07:00 +14°C° 0.3 mm 5 mps 748 mmHg 83%
08:00 +15°C° 0.3 mm 6 mps 748 mmHg 81%
09:00 +16°C° 0.3 mm 6 mps 748 mmHg 79%
10:00 +17°C° 0 mm 6 mps 748 mmHg 77%
11:00 +20°C° 0 mm 6 mps 748 mmHg 75%
12:00 +21°C° 0 mm 6 mps 748 mmHg 73%
13:00 +22°C° 0 mm 6 mps 748 mmHg 72%
14:00 +22°C° 0 mm 6 mps 748 mmHg 71%
15:00 +23°C° 0 mm 6 mps 748 mmHg 70%
16:00 +23°C° 0 mm 6 mps 747 mmHg 73%
17:00 +22°C° 0 mm 5 mps 747 mmHg 76%
18:00 +22°C° 0 mm 5 mps 747 mmHg 79%
19:00 +21°C° 0 mm 5 mps 747 mmHg 83%
20:00 +20°C° 0 mm 5 mps 747 mmHg 87%
21:00 +17°C° 0 mm 5 mps 747 mmHg 91%
22:00 +17°C° 0 mm 5 mps 747 mmHg 91%
23:00 +17°C° 0 mm 5 mps 747 mmHg 92%
Show more

We Need Your Consent

Meteoprog and our Service Providers may store and access personal data such as cookies, device identifiers or other similar technologies on your device and process such data to personalise content and ads, as well as provide social media features and to analyse the traffic.

  • Store and/or access information on your device

    Cookies, device identifiers or other information can be stored or accessed on your device for the purposes indicated above.

  • Personalised ads and content, ad and content measurement, audience insights, and products development

    Ads and content can be personalised based on a profile. More data can be added to better personalise ads and content. Ad and content performance can be measured. Insights about the audience who saw the ads and content can be derived. Such data can be used to develop or improve user’s experience, systems and software.

By clicking ‘I Agree’ you will allow the use of indicated cookies, device identifiers, web beacons or other similar technologies. Your settings can be changed in the browser on your device.

For certain purposes, legitimate interests may be relied on, rather than consent. You can read more about this in our Privacy and Cookie Policy.